Binghamton, NY

12:45 PM EST on December 09, 2019 (GMT -0500)
Binghamton Regional-Link

Weather History for KBGM - May, 2019

Change the Weather History Date:

Wednesday, May 29, 2019

  Actual Average Record
Temperature  
Mean Temperature 56 °F 60 °F  
Max Temperature 62 °F 69 °F 87 °F (1969)
Min Temperature 50 °F 50 °F 38 °F (1953)
Degree Days  
Heating Degree Days 9 6  
Month to date heating degree days 280 293  
Since 1 July heating degree days 7070 7092  
Cooling Degree Days 0 1  
Month to date cooling degree days 7 17  
Year to date cooling degree days 7 21  
Growing Degree Days 6 (Base 50)    
Moisture  
Dew Point 53 °F    
Average Humidity 86    
Maximum Humidity 96    
Minimum Humidity 75    
Precipitation  
Precipitation 0.02 in 0.12 in 1.20 in (1955)
Month to date precipitation 5.11 3.31  
Year to date precipitation 16.59 14.49  
Snow  
Snow 0.00 in 0.00 in T in (1955)
Month to date snowfall 0.0 0.1  
Since 1 July snowfall 81.4 83.4  
Snow Depth 0.00 in    
Sea Level Pressure  
Sea Level Pressure 29.74 in    
Wind  
Wind Speed 5 mph (NNW)    
Max Wind Speed 13 mph    
Max Gust Speed 17 mph    
Visibility 10 miles    
Events Rain    
T = Trace of Precipitation, MM = Missing Value Source: NWS Daily Summary

Daily Weather History Graph

Daily Weather History Graph

Search for Another Location

Airport or City:

Astronomy

May. 29, 2019 Rise Set
Actual Time 5:31 AM EDT 8:31 PM EDT
Civil Twilight 4:58 AM EDT 9:04 PM EDT
Nautical Twilight 4:15 AM EDT 9:47 PM EDT
Astronomical Twilight 3:25 AM EDT 10:37 PM EDT
Moon 3:16 AM EDT (5/29) 3:30 PM EDT (5/29)
Length of Visible Light 16h 06m
Length of Day
14h 59m
Waning Crescent, 23% of the Moon is Illuminated
May 29
Waning Crescent
Jun 3
New
Jun 10
First Quarter
Jun 17
Full
Jun 25
Last Quarter

Hourly Weather History & Observations

Time (EDT) Temp. Dew Point Humidity Pressure Visibility Wind Dir Wind Speed Gust Speed Precip Events Conditions
12:03 AM 57.0 °F 55.0 °F 93% 29.72 in 9.0 mi NNW 10.4 mph - 0.00 in Rain Light Rain
12:19 AM 55.9 °F 55.0 °F 97% 29.72 in 9.0 mi NNW 6.9 mph - 0.00 in   Mostly Cloudy
12:38 AM 55.9 °F 54.0 °F 93% 29.73 in 9.0 mi NW 9.2 mph - 0.00 in   Overcast
12:53 AM 55.9 °F 54.0 °F 93% 29.72 in 8.0 mi NNW 8.1 mph - 0.00 in   Overcast
1:53 AM 53.1 °F 51.1 °F 93% 29.71 in 10.0 mi NNW 10.4 mph - N/A   Overcast
2:53 AM 52.0 °F 50.0 °F 93% 29.73 in 10.0 mi NNW 11.5 mph - N/A   Overcast
3:40 AM 52.0 °F 50.0 °F 93% 29.73 in 10.0 mi NNW 9.2 mph - N/A   Overcast
3:53 AM 52.0 °F 50.0 °F 93% 29.72 in 10.0 mi NW 8.1 mph - N/A   Overcast
4:17 AM 51.1 °F 50.0 °F 96% 29.74 in 10.0 mi NW 6.9 mph - N/A   Overcast
4:53 AM 51.1 °F 48.9 °F 92% 29.73 in 10.0 mi NNW 6.9 mph - N/A   Overcast
5:06 AM 51.1 °F 48.9 °F 92% 29.75 in 10.0 mi NNW 6.9 mph - N/A   Overcast
5:44 AM 50.0 °F 48.9 °F 96% 29.77 in 8.0 mi NNW 6.9 mph - N/A   Overcast
5:53 AM 50.0 °F 48.9 °F 96% 29.77 in 10.0 mi NNW 5.8 mph - N/A   Overcast
6:31 AM 50.0 °F 48.0 °F 93% 29.78 in 10.0 mi NNW 3.5 mph - N/A   Overcast
6:53 AM 50.0 °F 48.0 °F 93% 29.78 in 10.0 mi NNW 3.5 mph - N/A   Overcast
7:53 AM 51.1 °F 48.0 °F 89% 29.78 in 10.0 mi North 3.5 mph - N/A   Overcast
8:13 AM 51.1 °F 48.9 °F 92% 29.78 in 10.0 mi North 5.8 mph - N/A   Overcast
8:53 AM 53.1 °F 50.0 °F 89% 29.77 in 10.0 mi North 3.5 mph - N/A   Overcast
9:53 AM 55.0 °F 50.0 °F 83% 29.75 in 10.0 mi Calm Calm - N/A   Overcast
10:00 AM 55.0 °F 51.1 °F 86% 29.76 in 10.0 mi Calm Calm - N/A   Overcast
10:27 AM 55.9 °F 51.1 °F 84% 29.75 in 10.0 mi Variable 4.6 mph - N/A   Overcast
10:53 AM 57.0 °F 52.0 °F 83% 29.75 in 10.0 mi Variable 3.5 mph - N/A   Overcast
10:58 AM 57.0 °F 52.0 °F 83% 29.76 in 10.0 mi Calm Calm - N/A   Overcast
11:45 AM 59.0 °F 52.0 °F 78% 29.77 in 10.0 mi Calm Calm - N/A   Overcast
11:53 AM 59.0 °F 52.0 °F 78% 29.76 in 10.0 mi Calm Calm - N/A   Overcast
12:28 PM 59.0 °F 53.1 °F 81% 29.76 in 10.0 mi Calm Calm - N/A   Overcast
1:27 PM 62.1 °F 55.0 °F 78% 29.74 in 10.0 mi ENE 3.5 mph - N/A   Mostly Cloudy
1:53 PM 61.0 °F 54.0 °F 78% 29.71 in 10.0 mi ENE 9.2 mph - N/A   Overcast
2:53 PM 60.1 °F 54.0 °F 80% 29.70 in 10.0 mi East 4.6 mph - 0.00 in Rain Light Rain
3:53 PM 59.0 °F 55.9 °F 90% 29.67 in 10.0 mi ESE 4.6 mph - 0.02 in Rain Light Rain
4:53 PM 61.0 °F 57.9 °F 90% 29.68 in 10.0 mi Calm Calm - 0.00 in   Overcast
5:23 PM 62.1 °F 57.9 °F 86% 29.70 in 10.0 mi Variable 4.6 mph - N/A   Overcast
5:35 PM 62.1 °F 57.9 °F 86% 29.70 in 10.0 mi Calm Calm - N/A   Overcast
5:49 PM 62.6 °F 59.0 °F 88% 29.70 in 9.0 mi Calm Calm - 0.00 in Rain Light Rain
5:53 PM 62.1 °F 59.0 °F 90% 29.70 in 9.0 mi NW 5.8 mph - 0.00 in Rain Light Rain
6:11 PM 62.1 °F 57.9 °F 86% 29.71 in 10.0 mi NW 5.8 mph - 0.00 in   Overcast
6:53 PM 61.0 °F 57.9 °F 90% 29.72 in 10.0 mi NW 5.8 mph - 0.00 in   Overcast
7:46 PM 61.0 °F 57.0 °F 87% 29.72 in 10.0 mi NW 4.6 mph - N/A   Mostly Cloudy
7:53 PM 60.1 °F 57.0 °F 90% 29.72 in 10.0 mi NW 3.5 mph - N/A   Scattered Clouds
8:30 PM 60.1 °F 55.9 °F 86% 29.72 in 10.0 mi NW 4.6 mph - N/A   Mostly Cloudy
8:53 PM 60.1 °F 55.9 °F 86% 29.73 in 10.0 mi NW 3.5 mph - N/A   Overcast
9:53 PM 59.0 °F 55.9 °F 90% 29.75 in 10.0 mi Calm Calm - N/A   Overcast
10:53 PM 59.0 °F 55.0 °F 87% 29.75 in 10.0 mi WNW 3.5 mph - N/A   Overcast
11:02 PM 59.0 °F 55.0 °F 87% 29.75 in 10.0 mi WNW 3.5 mph - N/A   Overcast
11:53 PM 57.9 °F 55.0 °F 90% 29.75 in 10.0 mi NNW 8.1 mph - N/A   Overcast